| time (UTC) | temp F | wind direction | speed knots | gust knots | rain 1hr in | rain 24hr in | rain mn in | humidity % | barometer mb |
| 20260505111501 | 57 | 355 | 0.0 | 0.9 | 0.00 | 0.00 | 0.00 | 75 | 1012.1 |
| 20260505111005 | 57 | 355 | 0.0 | 1.7 | 0.00 | 0.00 | 0.00 | 75 | 1011.9 |
| 20260505111000 | 57 | 355 | 0.0 | 1.7 | 0.00 | 0.00 | 0.00 | 75 | 1012.1 |
| 20260505101933 | 55 | 217 | 0.0 | 0.9 | 0.00 | 0.00 | 0.00 | 79 | 1011.5 |
| 20260505101418 | 55 | 217 | 0.0 | 0.9 | 0.00 | 0.00 | 0.00 | 78 | 1011.4 |
| 20260505100920 | 55 | 217 | 0.0 | 0.9 | 0.00 | 0.00 | 0.00 | 79 | 1011.5 |
| 20260505100421 | 55 | 216 | 0.0 | 0.9 | 0.00 | 0.00 | 0.00 | 79 | 1011.4 |
| 20260505095920 | 55 | 216 | 0.0 | 0.0 | 0.00 | 0.00 | 0.00 | 77 | 1011.4 |
| 20260505095419 | 56 | 217 | 0.0 | 0.0 | 0.00 | 0.00 | 0.00 | 77 | 1011.3 |
| 20260505094919 | 55 | 217 | 0.0 | 0.0 | 0.00 | 0.00 | 0.00 | 78 | 1011.3 |
| 20260505094418 | 56 | 217 | 0.0 | 0.0 | 0.00 | 0.00 | 0.00 | 77 | 1011.3 |
| 20260505094034 | 56 | 217 | 0.0 | 0.9 | 0.00 | 0.00 | 0.00 | 75 | 1011.2 |
| 20260505093923 | 56 | 217 | 0.0 | 0.0 | 0.00 | 0.00 | 0.00 | 76 | 1011.2 |
| 20260505093919 | 56 | 217 | 0.0 | 0.0 | 0.00 | 0.00 | 0.00 | 76 | 1011.2 |
| 20260505092417 | 56 | 216 | 0.0 | 0.9 | 0.00 | 0.00 | 0.00 | 76 | 1011.2 |
| 20260505091916 | 56 | 216 | 0.0 | 0.9 | 0.00 | 0.00 | 0.00 | 79 | 1011.2 |
| 20260505091416 | 56 | 217 | 0.0 | 0.9 | 0.00 | 0.00 | 0.00 | 78 | 1011.1 |
| 20260505091411 | 56 | 217 | 0.0 | 0.9 | 0.00 | 0.00 | 0.00 | 77 | 1011.1 |
| 20260505090409 | 57 | 217 | 0.0 | 0.9 | 0.00 | 0.00 | 0.00 | 76 | 1011.1 |
| 20260505085909 | 56 | 217 | 0.0 | 0.9 | 0.00 | 0.00 | 0.00 | 78 | 1011.1 |
| 20260505085404 | 56 | 217 | 0.0 | 0.9 | 0.00 | 0.00 | 0.00 | 77 | 1011.2 |
| 20260505085400 | 56 | 217 | 0.0 | 0.9 | 0.00 | 0.00 | 0.00 | 78 | 1011.1 |
| 20260505084354 | 56 | 217 | 0.0 | 0.9 | 0.00 | 0.00 | 0.00 | 78 | 1011.2 |
| 20260505083856 | 56 | 217 | 0.0 | 0.9 | 0.00 | 0.00 | 0.00 | 77 | 1011.2 |
| 20260505083851 | 56 | 217 | 0.0 | 0.9 | 0.00 | 0.00 | 0.00 | 77 | 1011.2 |
| 20260505082849 | 57 | 217 | 0.0 | 0.9 | 0.00 | 0.00 | 0.00 | 77 | 1011.1 |
| 20260505082343 | 57 | 217 | 0.0 | 0.9 | 0.00 | 0.00 | 0.00 | 76 | 1011.1 |
| 20260505081833 | 57 | 217 | 0.0 | 0.9 | 0.00 | 0.00 | 0.00 | 76 | 1011.1 |
| 20260505081330 | 56 | 217 | 0.0 | 0.9 | 0.00 | 0.00 | 0.00 | 78 | 1011.1 |
| 20260505081324 | 57 | 217 | 0.0 | 0.9 | 0.00 | 0.00 | 0.00 | 78 | 1011.1 |
| 20260505080929 | 56 | 217 | 0.0 | 0.9 | 0.00 | 0.00 | 0.00 | 79 | 1011.1 |
| 20260505075820 | 57 | 217 | 0.0 | 0.0 | 0.00 | 0.00 | 0.00 | 78 | 1011.0 |
| 20260505075321 | 56 | 217 | 0.0 | 0.9 | 0.00 | 0.00 | 0.00 | 78 | 1011.0 |
| 20260505074821 | 56 | 217 | 0.0 | 0.9 | 0.00 | 0.00 | 0.00 | 78 | 1011.0 |
| 20260505074321 | 56 | 217 | 0.0 | 0.0 | 0.00 | 0.00 | 0.00 | 77 | 1010.9 |
| 20260505073822 | 57 | 217 | 0.0 | 0.0 | 0.00 | 0.00 | 0.00 | 76 | 1010.8 |
| 20260505073319 | 57 | 217 | 0.0 | 0.9 | 0.00 | 0.00 | 0.00 | 76 | 1010.8 |
| 20260505072818 | 57 | 217 | 0.0 | 0.9 | 0.00 | 0.00 | 0.00 | 75 | 1010.8 |
| 20260505072318 | 58 | 217 | 0.0 | 0.9 | 0.00 | 0.00 | 0.00 | 74 | 1010.9 |
| 20260505071821 | 58 | 217 | 0.0 | 0.9 | 0.00 | 0.00 | 0.00 | 76 | 1010.8 |
| 20260505071817 | 58 | 217 | 0.0 | 0.9 | 0.00 | 0.00 | 0.00 | 75 | 1010.8 |
| 20260505070813 | 58 | 217 | 0.0 | 0.9 | 0.00 | 0.00 | 0.00 | 75 | 1010.7 |
| 20260505070314 | 58 | 217 | 0.0 | 0.9 | 0.00 | 0.00 | 0.00 | 74 | 1010.7 |
| 20260505065813 | 58 | 217 | 0.0 | 0.9 | 0.00 | 0.00 | 0.00 | 74 | 1010.7 |
| 20260505065808 | 58 | 217 | 0.0 | 0.9 | 0.00 | 0.00 | 0.00 | 75 | 1010.7 |
| 20260505064806 | 58 | 217 | 0.0 | 0.9 | 0.00 | 0.00 | 0.00 | 74 | 1010.6 |
| 20260505064306 | 58 | 217 | 0.0 | 0.9 | 0.00 | 0.00 | 0.00 | 74 | 1010.7 |
| 20260505063805 | 58 | 217 | 0.0 | 0.9 | 0.00 | 0.00 | 0.00 | 74 | 1010.7 |
| 20260505063304 | 58 | 217 | 0.0 | 0.9 | 0.00 | 0.00 | 0.00 | 75 | 1010.7 |
| 20260505062804 | 58 | 217 | 0.0 | 0.9 | 0.00 | 0.00 | 0.00 | 75 | 1010.8 |
| 20260505062304 | 58 | 217 | 0.0 | 0.9 | 0.00 | 0.00 | 0.00 | 76 | 1010.8 |
| 20260505061801 | 58 | 217 | 0.0 | 0.9 | 0.00 | 0.00 | 0.00 | 76 | 1010.8 |
| 20260505061255 | 58 | 217 | 0.0 | 0.9 | 0.00 | 0.00 | 0.00 | 76 | 1010.9 |
| 20260505061250 | 58 | 217 | 0.0 | 0.9 | 0.00 | 0.00 | 0.00 | 76 | 1010.9 |
| 20260505060245 | 57 | 217 | 0.0 | 0.9 | 0.00 | 0.00 | 0.00 | 76 | 1010.9 |
| 20260505055743 | 58 | 217 | 0.0 | 0.9 | 0.00 | 0.00 | 0.00 | 76 | 1010.8 |
| 20260505055240 | 58 | 217 | 0.0 | 0.9 | 0.00 | 0.00 | 0.00 | 75 | 1010.8 |
| 20260505054741 | 58 | 217 | 0.0 | 0.9 | 0.00 | 0.00 | 0.00 | 75 | 1010.8 |
| 20260505054238 | 58 | 217 | 0.0 | 0.9 | 0.00 | 0.00 | 0.00 | 75 | 1010.8 |
| 20260505053738 | 58 | 217 | 0.0 | 0.9 | 0.00 | 0.00 | 0.00 | 75 | 1010.7 |
| 20260505053235 | 58 | 217 | 0.0 | 0.9 | 0.00 | 0.00 | 0.00 | 74 | 1010.7 |
| 20260505052734 | 58 | 217 | 0.0 | 0.9 | 0.00 | 0.00 | 0.00 | 74 | 1010.8 |
| 20260505052239 | 58 | 217 | 0.0 | 1.7 | 0.00 | 0.00 | 0.00 | 73 | 1010.8 |
| 20260505052235 | 58 | 217 | 0.0 | 1.7 | 0.00 | 0.00 | 0.00 | 73 | 1010.8 |
| 20260505051235 | 58 | 217 | 0.0 | 0.0 | 0.00 | 0.00 | 0.00 | 73 | 1010.9 |
| 20260505050734 | 59 | 217 | 0.0 | 0.0 | 0.00 | 0.00 | 0.00 | 72 | 1010.9 |
| 20260505050235 | 59 | 217 | 0.0 | 0.9 | 0.00 | 0.00 | 0.00 | 71 | 1010.9 |
| 20260505050231 | 59 | 217 | 0.0 | 0.9 | 0.00 | 0.00 | 0.00 | 71 | 1010.9 |
| 20260505041731 | 60 | 217 | 0.0 | 0.9 | 0.00 | 0.00 | 0.00 | 67 | 1010.9 |
| 20260505041727 | 60 | 217 | 0.0 | 0.9 | 0.00 | 0.00 | 0.00 | 68 | 1011.0 |
| 20260505040718 | 60 | 217 | 0.0 | 0.9 | 0.00 | 0.00 | 0.00 | 68 | 1010.9 |
| 20260505040209 | 60 | 217 | 0.0 | 0.9 | 0.00 | 0.00 | 0.00 | 67 | 1010.9 |
| 20260505035658 | 61 | 217 | 0.0 | 0.9 | 0.00 | 0.00 | 0.00 | 67 | 1010.9 |
| 20260505035151 | 61 | 217 | 0.0 | 0.0 | 0.00 | 0.00 | 0.00 | 66 | 1010.8 |
| 20260505034651 | 61 | 217 | 0.0 | 0.0 | 0.00 | 0.00 | 0.00 | 65 | 1010.8 |
| 20260505034151 | 61 | 217 | 0.0 | 0.9 | 0.00 | 0.00 | 0.00 | 65 | 1010.8 |
| 20260505033649 | 61 | 217 | 0.0 | 0.9 | 0.00 | 0.00 | 0.00 | 65 | 1010.8 |
| 20260505033148 | 62 | 217 | 0.0 | 0.9 | 0.00 | 0.00 | 0.00 | 64 | 1010.8 |
| 20260505032639 | 62 | 217 | 0.0 | 0.9 | 0.00 | 0.00 | 0.00 | 64 | 1010.9 |
| 20260505032141 | 62 | 217 | 0.0 | 0.9 | 0.00 | 0.00 | 0.00 | 63 | 1010.8 |
| 20260505031636 | 63 | 217 | 0.0 | 0.9 | 0.00 | 0.00 | 0.00 | 62 | 1010.8 |
| 20260505031137 | 63 | 217 | 0.0 | 0.9 | 0.00 | 0.00 | 0.00 | 62 | 1010.8 |
| 20260505030638 | 62 | 217 | 0.0 | 0.9 | 0.00 | 0.00 | 0.00 | 62 | 1010.8 |
| 20260505030133 | 63 | 217 | 0.0 | 0.9 | 0.00 | 0.00 | 0.00 | 62 | 1010.8 |
| 20260505025624 | 63 | 217 | 0.0 | 0.9 | 0.00 | 0.00 | 0.00 | 61 | 1010.8 |
| 20260505025123 | 63 | 217 | 0.0 | 0.9 | 0.00 | 0.00 | 0.00 | 61 | 1010.7 |
| 20260505025113 | 63 | 217 | 0.0 | 0.9 | 0.00 | 0.00 | 0.00 | 61 | 1010.7 |
| 20260505024113 | 63 | 217 | 0.0 | 0.9 | 0.00 | 0.00 | 0.00 | 61 | 1010.7 |
| 20260505023611 | 63 | 217 | 0.0 | 0.9 | 0.00 | 0.00 | 0.00 | 62 | 1010.8 |
| 20260505023112 | 63 | 217 | 0.0 | 2.6 | 0.00 | 0.00 | 0.00 | 62 | 1010.8 |
| 20260505022611 | 63 | 119 | 0.0 | 0.9 | 0.00 | 0.00 | 0.00 | 61 | 1010.7 |
| 20260505022605 | 63 | 217 | 0.0 | 2.6 | 0.00 | 0.00 | 0.00 | 62 | 1010.8 |
| 20260505021557 | 64 | 119 | 0.0 | 1.7 | 0.00 | 0.00 | 0.00 | 60 | 1010.7 |
| 20260505021055 | 64 | 119 | 0.0 | 1.7 | 0.00 | 0.00 | 0.00 | 60 | 1010.7 |
| 20260505020551 | 64 | 119 | 0.0 | 1.7 | 0.00 | 0.00 | 0.00 | 60 | 1010.5 |
| 20260505020051 | 64 | 119 | 0.0 | 1.7 | 0.00 | 0.00 | 0.00 | 59 | 1010.5 |
| 20260505015553 | 64 | 119 | 0.0 | 0.9 | 0.00 | 0.00 | 0.00 | 58 | 1010.5 |
| 20260505015050 | 65 | 119 | 0.0 | 0.9 | 0.00 | 0.00 | 0.00 | 58 | 1010.4 |
| 20260505014550 | 65 | 119 | 0.0 | 0.9 | 0.00 | 0.00 | 0.00 | 57 | 1010.4 |
| 20260505014049 | 65 | 119 | 0.0 | 0.9 | 0.00 | 0.00 | 0.00 | 57 | 1010.4 |
| 20260505013555 | 66 | 119 | 0.0 | 0.9 | 0.00 | 0.00 | 0.00 | 56 | 1010.3 |
| 20260505013550 | 66 | 119 | 0.0 | 0.9 | 0.00 | 0.00 | 0.00 | 56 | 1010.4 |
| 20260505012540 | 66 | 119 | 0.0 | 0.0 | 0.00 | 0.00 | 0.00 | 55 | 1010.2 |
| 20260505012036 | 66 | 119 | 0.0 | 0.9 | 0.00 | 0.00 | 0.00 | 55 | 1010.0 |
| 20260505011536 | 66 | 119 | 0.0 | 1.7 | 0.00 | 0.00 | 0.00 | 55 | 1010.0 |
| 20260505011027 | 67 | 119 | 0.0 | 1.7 | 0.00 | 0.00 | 0.00 | 55 | 1010.1 |
| 20260505010524 | 67 | 119 | 0.0 | 1.7 | 0.00 | 0.00 | 0.00 | 53 | 1010.0 |
| 20260505010520 | 67 | 119 | 0.0 | 1.7 | 0.00 | 0.00 | 0.00 | 53 | 1010.0 |
| 20260505005519 | 68 | 46 | 0.0 | 1.7 | 0.00 | 0.00 | 0.00 | 53 | 1010.0 |
| 20260505005024 | 68 | 154 | 0.0 | 1.7 | 0.00 | 0.00 | 0.00 | 53 | 1009.9 |
| 20260505005020 | 68 | 154 | 0.0 | 0.9 | 0.00 | 0.00 | 0.00 | 52 | 1009.9 |
| 20260505004021 | 68 | 154 | 0.0 | 1.7 | 0.00 | 0.00 | 0.00 | 52 | 1009.8 |
| 20260505004017 | 69 | 154 | 0.0 | 1.7 | 0.00 | 0.00 | 0.00 | 51 | 1009.8 |
| 20260505003033 | 70 | 154 | 0.0 | 2.6 | 0.00 | 0.00 | 0.00 | 48 | 1009.8 |
| 20260505003016 | 69 | 154 | 0.9 | 1.7 | 0.00 | 0.00 | 0.00 | 50 | 1009.8 |
| 20260505002018 | 71 | 154 | 0.0 | 2.6 | 0.00 | 0.00 | 0.00 | 47 | 1009.7 |
| 20260505001523 | 70 | 154 | 0.9 | 3.5 | 0.00 | 0.00 | 0.00 | 48 | 1009.6 |
| 20260505001518 | 71 | 154 | 0.9 | 2.6 | 0.00 | 0.00 | 0.00 | 46 | 1009.7 |
| 20260505000516 | 71 | 187 | 0.9 | 3.5 | 0.00 | 0.00 | 0.00 | 47 | 1009.7 |
| 20260505000008 | 71 | 187 | 0.9 | 3.5 | 0.00 | 0.00 | 0.00 | 45 | 1009.8 |
| 20260504235533 | 71 | 298 | 0.9 | 3.5 | 0.00 | 0.00 | 0.00 | 45 | 1009.6 |
| 20260504235528 | 71 | 152 | 0.9 | 2.6 | 0.00 | 0.00 | 0.00 | 46 | 1009.5 |
| 20260504235523 | 71 | 204 | 0.9 | 3.5 | 0.00 | 0.00 | 0.00 | 45 | 1009.6 |
| 20260504235517 | 72 | 96 | 0.9 | 3.5 | 0.00 | 0.00 | 0.00 | 44 | 1009.7 |
| 20260504235511 | 72 | 193 | 0.9 | 3.5 | 0.00 | 0.00 | 0.00 | 44 | 1009.7 |
| 20260504235505 | 72 | 197 | 0.9 | 3.5 | 0.00 | 0.00 | 0.00 | 45 | 1009.7 |
| 20260504232458 | 72 | 212 | 0.9 | 3.5 | 0.00 | 0.00 | 0.00 | 45 | 1009.5 |
| 20260504231956 | 72 | 190 | 0.9 | 3.5 | 0.00 | 0.00 | 0.00 | 44 | 1009.5 |
| 20260504231453 | 72 | 196 | 0.9 | 4.3 | 0.00 | 0.00 | 0.00 | 44 | 1009.5 |
| 20260504230953 | 72 | 157 | 0.9 | 7.0 | 0.00 | 0.00 | 0.00 | 45 | 1009.4 |
| 20260504230452 | 72 | 34 | 0.9 | 7.0 | 0.00 | 0.00 | 0.00 | 43 | 1009.4 |
| 20260504225950 | 73 | 186 | 0.9 | 7.0 | 0.00 | 0.00 | 0.00 | 42 | 1009.4 |
| 20260504225451 | 73 | 207 | 1.7 | 7.0 | 0.00 | 0.00 | 0.00 | 42 | 1009.4 |
| 20260504224951 | 73 | 186 | 1.7 | 4.3 | 0.00 | 0.00 | 0.00 | 42 | 1009.4 |
| 20260504224441 | 73 | 192 | 1.7 | 4.3 | 0.00 | 0.00 | 0.00 | 41 | 1009.4 |
| 20260504223940 | 74 | 304 | 1.7 | 5.2 | 0.00 | 0.00 | 0.00 | 41 | 1009.4 |
| 20260504223441 | 74 | 148 | 1.7 | 5.2 | 0.00 | 0.00 | 0.00 | 42 | 1009.4 |
| 20260504223436 | 74 | 186 | 1.7 | 4.3 | 0.00 | 0.00 | 0.00 | 41 | 1009.5 |
| 20260504223039 | 74 | 155 | 1.7 | 4.3 | 0.00 | 0.00 | 0.00 | 40 | 1009.4 |
| 20260504221932 | 74 | 200 | 1.7 | 4.3 | 0.00 | 0.00 | 0.00 | 41 | 1009.4 |
| 20260504221432 | 74 | 186 | 1.7 | 4.3 | 0.00 | 0.00 | 0.00 | 43 | 1009.2 |
| 20260504220934 | 74 | 158 | 0.9 | 4.3 | 0.00 | 0.00 | 0.00 | 42 | 1009.1 |
| 20260504220428 | 73 | 221 | 0.9 | 3.5 | 0.00 | 0.00 | 0.00 | 43 | 1009.2 |
| 20260504215924 | 73 | 202 | 1.7 | 5.2 | 0.00 | 0.00 | 0.00 | 43 | 1009.2 |
| 20260504215427 | 74 | 185 | 1.7 | 5.2 | 0.00 | 0.00 | 0.00 | 42 | 1009.3 |
| 20260504215423 | 73 | 191 | 1.7 | 5.2 | 0.00 | 0.00 | 0.00 | 44 | 1009.3 |
| 20260504214419 | 75 | 67 | 1.7 | 5.2 | 0.00 | 0.00 | 0.00 | 38 | 1009.2 |
| 20260504213923 | 74 | 184 | 1.7 | 4.3 | 0.00 | 0.00 | 0.00 | 40 | 1009.2 |
| 20260504213918 | 75 | 86 | 1.7 | 4.3 | 0.00 | 0.00 | 0.00 | 39 | 1009.3 |
| 20260504213531 | 74 | 46 | 1.7 | 4.3 | 0.00 | 0.00 | 0.00 | 40 | 1009.3 |
| 20260504212417 | 74 | 186 | 1.7 | 4.3 | 0.00 | 0.00 | 0.00 | 40 | 1009.2 |
| 20260504211915 | 74 | 241 | 1.7 | 6.1 | 0.00 | 0.00 | 0.00 | 38 | 1009.3 |
| 20260504211911 | 74 | 338 | 1.7 | 6.1 | 0.00 | 0.00 | 0.00 | 41 | 1009.3 |
| 20260504211522 | 74 | 324 | 1.7 | 7.0 | 0.00 | 0.00 | 0.00 | 41 | 1009.3 |
| 20260504210407 | 74 | 175 | 2.6 | 8.7 | 0.00 | 0.00 | 0.00 | 41 | 1009.4 |
| 20260504205907 | 75 | 199 | 2.6 | 8.7 | 0.00 | 0.00 | 0.00 | 37 | 1009.3 |
| 20260504205903 | 75 | 290 | 1.7 | 8.7 | 0.00 | 0.00 | 0.00 | 37 | 1009.4 |
| 20260504204902 | 76 | 169 | 2.6 | 8.7 | 0.00 | 0.00 | 0.00 | 43 | 1009.4 |
| 20260504204407 | 75 | 313 | 1.7 | 7.8 | 0.00 | 0.00 | 0.00 | 42 | 1009.3 |
| 20260504204402 | 75 | 323 | 2.6 | 7.8 | 0.00 | 0.00 | 0.00 | 41 | 1009.4 |
| 20260504203357 | 75 | 190 | 2.6 | 7.8 | 0.00 | 0.00 | 0.00 | 41 | 1009.4 |
| 20260504202859 | 75 | 346 | 2.6 | 7.8 | 0.00 | 0.00 | 0.00 | 40 | 1009.5 |
| 20260504202353 | 74 | 294 | 2.6 | 7.0 | 0.00 | 0.00 | 0.00 | 39 | 1009.7 |
| 20260504201853 | 75 | 254 | 1.7 | 4.3 | 0.00 | 0.00 | 0.00 | 38 | 1009.7 |
| 20260504201353 | 74 | 159 | 1.7 | 4.3 | 0.00 | 0.00 | 0.00 | 39 | 1009.7 |
| 20260504200854 | 74 | 236 | 1.7 | 5.2 | 0.00 | 0.00 | 0.00 | 39 | 1009.8 |
| 20260504200353 | 74 | 186 | 1.7 | 5.2 | 0.00 | 0.00 | 0.00 | 38 | 1010.0 |
| 20260504195855 | 74 | 183 | 2.6 | 5.2 | 0.00 | 0.00 | 0.00 | 38 | 1010.0 |
| 20260504195850 | 74 | 129 | 1.7 | 7.8 | 0.00 | 0.00 | 0.00 | 39 | 1010.0 |
| 20260504194851 | 73 | 158 | 1.7 | 7.8 | 0.00 | 0.00 | 0.00 | 41 | 1010.1 |
| 20260504194350 | 74 | 221 | 2.6 | 7.8 | 0.00 | 0.00 | 0.00 | 40 | 1010.2 |
| 20260504193849 | 74 | 95 | 2.6 | 7.8 | 0.00 | 0.00 | 0.00 | 38 | 1010.3 |
| 20260504193340 | 73 | 53 | 2.6 | 6.1 | 0.00 | 0.00 | 0.00 | 40 | 1010.3 |
| 20260504192839 | 73 | 182 | 2.6 | 6.1 | 0.00 | 0.00 | 0.00 | 43 | 1010.3 |
| 20260504192338 | 73 | 215 | 1.7 | 5.2 | 0.00 | 0.00 | 0.00 | 41 | 1010.5 |
| 20260504191838 | 73 | 114 | 1.7 | 3.5 | 0.00 | 0.00 | 0.00 | 38 | 1010.6 |
| 20260504191335 | 73 | 259 | 1.7 | 4.3 | 0.00 | 0.00 | 0.00 | 40 | 1010.8 |
| 20260504190836 | 73 | 219 | 2.6 | 7.8 | 0.00 | 0.00 | 0.00 | 41 | 1010.9 |
| 20260504190341 | 73 | 288 | 1.7 | 7.8 | 0.00 | 0.00 | 0.00 | 39 | 1011.1 |
| 20260504190336 | 73 | 209 | 2.6 | 7.8 | 0.00 | 0.00 | 0.00 | 39 | 1010.9 |
| 20260504185333 | 73 | 333 | 3.5 | 7.8 | 0.00 | 0.00 | 0.00 | 42 | 1011.1 |
| 20260504184833 | 73 | 292 | 2.6 | 7.8 | 0.00 | 0.00 | 0.00 | 39 | 1011.3 |
| 20260504184331 | 72 | 317 | 2.6 | 5.2 | 0.00 | 0.00 | 0.00 | 42 | 1011.3 |
| 20260504183837 | 71 | 238 | 1.7 | 5.2 | 0.00 | 0.00 | 0.00 | 44 | 1011.5 |
| 20260504183832 | 72 | 168 | 2.6 | 5.2 | 0.00 | 0.00 | 0.00 | 40 | 1011.4 |
| 20260504182830 | 71 | 308 | 1.7 | 5.2 | 0.00 | 0.00 | 0.00 | 39 | 1011.6 |
| 20260504182826 | 71 | 168 | 1.7 | 4.3 | 0.00 | 0.00 | 0.00 | 41 | 1011.5 |
| 20260504181824 | 71 | 183 | 1.7 | 5.2 | 0.00 | 0.00 | 0.00 | 40 | 1011.7 |
| 20260504181329 | 72 | 166 | 1.7 | 6.1 | 0.00 | 0.00 | 0.00 | 43 | 1011.9 |
| 20260504181324 | 71 | 101 | 1.7 | 6.1 | 0.00 | 0.00 | 0.00 | 41 | 1011.7 |
| 20260504180323 | 72 | 21 | 2.6 | 7.0 | 0.00 | 0.00 | 0.00 | 41 | 1012.0 |
| 20260504175828 | 71 | 136 | 1.7 | 7.0 | 0.00 | 0.00 | 0.00 | 43 | 1012.2 |
| 20260504175824 | 71 | 176 | 2.6 | 7.0 | 0.00 | 0.00 | 0.00 | 43 | 1012.0 |
| 20260504174822 | 71 | 221 | 1.7 | 7.0 | 0.00 | 0.00 | 0.00 | 42 | 1012.2 |
| 20260504174322 | 71 | 177 | 1.7 | 6.1 | 0.00 | 0.00 | 0.00 | 43 | 1012.1 |
| 20260504174318 | 70 | 155 | 2.6 | 6.1 | 0.00 | 0.00 | 0.00 | 41 | 1012.2 |
| 20260504173303 | 71 | 97 | 2.6 | 7.0 | 0.00 | 0.00 | 0.00 | 41 | 1012.2 |
| 20260504172804 | 71 | 333 | 1.7 | 7.0 | 0.00 | 0.00 | 0.00 | 42 | 1012.4 |
| 20260504172759 | 70 | 206 | 1.7 | 7.0 | 0.00 | 0.00 | 0.00 | 43 | 1012.5 |
| 20260504171756 | 69 | 165 | 1.7 | 4.3 | 0.00 | 0.00 | 0.00 | 44 | 1012.5 |
| 20260504171259 | 70 | 251 | 2.6 | 5.2 | 0.00 | 0.00 | 0.00 | 42 | 1012.5 |
| 20260504170754 | 69 | 233 | 2.6 | 6.1 | 0.00 | 0.00 | 0.00 | 43 | 1012.6 |
| 20260504170749 | 69 | 190 | 1.7 | 5.2 | 0.00 | 0.00 | 0.00 | 45 | 1012.6 |
| 20260504160227 | 67 | 196 | 2.6 | 7.8 | 0.00 | 0.00 | 0.00 | 44 | 1013.4 |
| 20260504150711 | 65 | 210 | 1.7 | 7.8 | 0.00 | 0.00 | 0.00 | 45 | 1014.0 |
| 20260504150212 | 65 | 79 | 2.6 | 7.8 | 0.00 | 0.00 | 0.00 | 47 | 1014.1 |
| 20260504141204 | 61 | 207 | 1.7 | 5.2 | 0.00 | 0.00 | 0.00 | 52 | 1014.2 |
| 20260504140703 | 60 | 158 | 1.7 | 5.2 | 0.00 | 0.00 | 0.00 | 52 | 1014.2 |
| 20260504140204 | 60 | 165 | 0.9 | 3.5 | 0.00 | 0.00 | 0.00 | 56 | 1014.2 |
| 20260504130637 | 55 | 306 | 0.0 | 0.9 | 0.00 | 0.00 | 0.00 | 66 | 1014.7 |
| 20260504130136 | 54 | 306 | 0.0 | 2.6 | 0.00 | 0.00 | 0.00 | 68 | 1014.8 |